Wind_Speed
46 47 48 49 50 50 50 50 50 51 52 52 53 54 54 55 55 55 56 56 56 56 56 56 55 55 55 56 56 56 56 56 57 57 57 56 56 57 57 57 58 58 58
45 45 46 47 49 50 50 51 51 52 54 54 54 54 54 54 55 55 55 55 56 56 56 56 56 57 57 57 57 57 58 59 59 58 58 57 57 57 57 57 58 59 59
44 44 45 47 48 49 51 51 53 53 54 54 54 55 55 54 54 54 54 55 55 56 56 56 56 57 58 57 57 58 58 59 60 59 59 58 58 57 57 57 58 59 60
44 44 45 46 48 49 50 51 51 52 52 53 54 54 54 55 56 56 55 55 55 55 56 56 57 58 59 59 59 60 60 60 60 60 60 59 59 58 58 57 58 58 59
44 44 45 45 47 48 49 50 50 51 51 52 52 53 53 54 55 56 57 56 56 55 56 57 58 59 60 61 61 62 62 62 62 61 60 59 59 59 59 58 58 58 59
46 45 46 46 46 47 48 49 50 50 50 51 52 52 53 54 55 56 56 57 57 57 57 58 58 59 60 61 61 62 62 62 61 61 60 60 59 59 59 59 59 59 58
45 45 46 45 45 46 48 49 49 49 50 51 52 52 53 54 55 56 56 57 57 57 58 58 59 59 60 60 60 60 61 61 61 61 61 60 60 60 60 60 59 59 58
44 44 44 44 44 45 46 47 47 48 49 50 51 52 53 54 55 56 57 57 58 59 59 60 59 59 59 60 60 60 60 61 61 61 62 61 61 61 61 61 60 59 58
43 44 44 44 44 45 45 46 47 47 48 49 50 51 51 52 53 55 56 57 58 58 59 60 60 59 59 60 60 60 59 60 60 61 62 62 61 61 61 62 62 61 60
42 43 44 44 45 45 46 47 47 48 48 49 50 51 51 51 53 54 55 56 57 57 58 58 58 58 58 59 59 59 59 59 59 60 61 61 61 61 61 61 61 61 61
41 42 43 44 44 45 45 46 47 48 49 49 50 50 51 51 52 53 54 55 56 56 56 56 55 56 56 57 57 58 58 58 58 59 60 60 61 61 61 61 61 61 61
41 42 43 44 45 45 45 45 46 47 48 49 50 50 50 51 52 52 53 53 54 55 55 54 54 54 54 55 56 56 57 57 57 57 58 59 60 61 62 62 61 62 61
41 42 43 43 44 45 45 45 45 45 46 47 48 48 48 48 49 50 50 50 51 52 52 52 52 52 53 54 54 54 55 55 56 56 56 57 59 60 61 61 61 60 61
41 41 41 41 42 44 45 45 45 45 45 45 45 45 45 45 46 47 48 49 49 49 50 50 51 51 52 52 53 53 53 54 54 54 54 55 56 58 59 60 59 59 59
40 40 41 41 41 42 43 44 44 44 45 45 44 44 45 44 44 45 46 47 48 48 48 49 49 49 50 50 51 52 52 52 52 53 53 53 54 55 56 57 57 57 57
40 40 40 40 41 42 43 44 44 44 45 45 45 44 43 44 43 44 45 46 46 47 48 48 48 48 48 49 49 50 51 51 51 52 52 53 53 53 53 54 55 56 57
40 41 41 41 41 42 43 43 44 44 45 45 44 44 43 43 43 43 43 45 45 46 46 47 48 48 48 48 49 49 50 51 51 52 52 52 53 53 53 53 54 54 55
40 41 41 42 42 42 42 42 43 43 43 43 44 44 43 43 42 43 43 44 44 45 46 46 46 46 47 48 48 49 49 49 50 50 51 51 52 53 53 53 53 52 52
41 42 42 42 42 42 42 42 43 43 43 43 43 43 43 43 43 43 44 44 44 45 45 46 46 46 47 47 47 48 48 48 49 48 49 49 50 51 51 51 51 51 50
42 42 42 42 42 42 42 43 43 43 43 43 43 43 43 43 43 43 44 44 44 45 45 46 46 46 46 46 47 47 47 47 47 47 47 48 48 49 49 50 50 49 48
42 42 42 42 42 42 42 42 42 42 42 42 42 43 43 43 43 43 43 43 43 44 44 45 45 46 46 46 46 46 46 46 46 46 46 46 46 46 46 46 47 46 46
42 42 42 42 42 42 42 42 41 41 41 41 41 42 42 42 42 42 42 42 42 43 43 44 45 45 46 46 46 46 46 45 45 45 44 44 43 44 44 44 44 45 44
42 42 42 42 42 41 41 41 41 41 41 41 40 40 41 41 41 41 41 41 41 42 42 42 43 44 44 45 44 44 44 44 44 44 43 42 42 42 42 42 43 43 43
41 41 41 41 41 40 40 40 39 39 39 38 38 39 39 38 39 39 39 40 40 40 40 41 41 42 42 43 43 43 43 43 43 43 43 42 41 41 41 41 42 42 42
40 39 39 39 38 38 38 37 36 36 36 36 36 37 37 37 37 37 38 38 38 38 39 39 39 40 40 40 40 41 41 41 41 41 41 41 41 41 40 40 40 40 41
38 38 37 37 36 36 35 35 35 35 35 35 35 35 35 36 36 36 36 36 36 36 36 36 36 37 38 38 39 39 39 39 39 39 39 39 39 39 39 38 38 39 39
Wind_Direction
267 266 265 264 264 262 260 259 258 258 258 259 259 260 260 259 259 259 258 258 257 256 255 255 256 255 255 256 256 256 256 257 257 257 256 257 257 257 256 255 255 256 257
268 267 266 265 264 262 261 260 259 259 259 260 260 261 260 260 259 259 259 258 258 257 256 255 256 256 256 256 256 255 256 257 257 258 257 257 257 257 256 256 256 256 256
269 267 266 266 265 263 261 261 261 260 260 260 260 260 260 259 259 259 258 258 258 258 257 256 256 256 256 256 256 255 256 257 258 258 258 258 257 257 257 257 257 257 256
269 268 267 267 266 265 263 262 261 261 260 259 260 259 260 259 259 258 258 258 258 258 257 256 256 256 257 256 256 256 257 257 258 258 258 258 258 257 257 257 257 258 257
270 270 269 268 266 265 265 264 264 263 262 260 260 260 259 259 259 259 259 258 259 259 258 257 257 257 258 257 257 257 257 258 258 258 258 259 259 258 257 257 258 258 258
272 271 270 269 268 266 266 266 265 265 263 262 261 261 260 260 260 260 260 259 259 259 259 258 258 258 258 258 258 258 258 258 258 258 258 259 259 259 258 258 258 259 259
272 271 270 269 269 268 266 266 265 264 264 264 263 263 262 262 261 260 260 260 259 259 259 259 258 259 259 259 259 258 258 258 258 258 258 259 259 259 259 258 259 259 259
271 270 269 268 268 268 267 266 265 265 265 265 264 264 264 263 262 262 261 260 259 260 260 260 259 259 259 258 258 258 259 259 258 258 258 258 258 258 258 258 258 258 259
271 271 270 268 268 268 268 267 267 266 266 266 266 266 265 264 263 263 262 261 261 260 260 259 259 259 258 258 258 258 259 259 259 258 258 257 257 257 257 257 256 257 258
271 271 270 269 268 268 268 268 268 268 268 268 268 267 266 266 264 263 263 262 262 261 261 260 259 258 258 258 258 258 258 258 258 257 256 256 256 256 256 256 256 257 259
273 273 272 270 269 268 269 269 269 270 270 270 270 269 269 267 266 264 264 263 263 262 260 259 259 259 259 259 259 258 258 258 257 256 255 255 255 255 255 256 257 257 259
274 274 273 272 271 269 270 271 271 272 272 273 272 272 271 269 268 266 264 263 262 261 260 259 259 259 259 259 259 259 258 258 257 257 257 256 256 255 256 256 257 258 259
276 275 275 274 272 271 271 271 272 273 273 274 273 272 271 269 268 265 263 262 261 260 259 259 258 259 259 259 258 258 258 258 258 258 258 257 256 256 256 256 257 258 259
277 276 275 274 274 273 273 273 273 273 274 274 273 272 271 269 267 265 262 261 261 260 260 260 259 259 259 258 258 258 259 259 259 259 259 259 258 257 257 256 257 257 258
277 277 276 276 276 276 275 274 274 273 274 275 275 273 271 270 269 266 264 262 261 260 259 259 259 259 258 258 258 258 259 259 260 260 260 259 259 259 258 256 256 257 258
278 278 278 278 278 277 277 275 275 274 274 274 274 274 273 272 270 268 265 262 261 260 259 258 258 258 258 258 258 259 260 260 261 261 260 259 259 258 259 258 257 257 258
280 279 279 278 279 279 278 276 275 275 275 274 274 274 273 272 271 269 266 264 262 260 258 258 258 258 259 259 259 260 261 261 262 262 261 260 260 259 259 259 259 259 258
281 281 281 280 280 280 279 277 276 275 274 274 273 273 273 272 271 269 267 266 263 261 259 259 260 260 260 260 260 260 261 261 262 262 262 261 260 260 259 259 258 258 258
283 282 283 282 281 280 279 278 278 277 275 273 272 272 272 271 270 269 268 267 265 262 260 260 260 260 260 260 261 261 261 261 262 262 262 261 260 260 259 258 258 257 257
284 283 283 282 282 281 280 279 278 277 276 274 272 271 270 270 270 269 269 268 267 265 262 261 260 260 260 260 261 262 262 262 261 262 261 261 260 260 260 259 257 256 256
285 284 283 283 282 281 280 279 278 278 277 275 273 271 270 270 270 269 269 268 267 265 263 262 261 260 261 261 261 261 261 261 261 261 261 261 260 259 259 258 257 255 255
284 284 283 283 283 282 281 280 279 278 277 275 274 273 272 270 269 268 268 268 267 266 265 263 262 262 262 261 261 261 261 261 260 260 261 261 260 259 258 257 256 254 254
285 284 284 283 283 282 281 281 279 278 277 276 275 273 272 272 270 269 268 268 267 266 265 265 263 262 262 262 261 260 260 260 259 259 259 259 259 258 257 255 255 253 253
285 285 284 284 283 282 281 280 280 279 278 277 276 274 273 272 271 270 269 268 266 265 264 263 263 262 261 260 259 259 259 259 257 256 256 256 256 256 256 254 252 251 251
286 285 285 284 283 282 281 281 280 280 279 278 277 276 273 272 271 270 269 268 268 267 265 264 262 260 259 258 258 258 258 258 256 254 253 253 254 255 255 253 252 251 251
287 286 286 285 283 282 281 281 281 280 280 279 278 277 275 273 271 270 269 268 267 267 265 264 262 260 258 257 257 257 256 255 253 253 253 253 253 253 253 252 251 250 251
Height
5579 5579 5578 5578 5578 5579 5579 5580 5581 5581 5582 5583 5584 5585 5586 5587 5588 5589 5590 5592 5593 5595 5598 5600 5603 5605 5607 5609 5611 5613 5615 5617 5620 5624 5625 5627 5629 5632 5634 5636 5639 5642 5645
5565 5565 5564 5564 5564 5564 5565 5566 5566 5567 5567 5568 5569 5569 5570 5571 5572 5573 5574 5576 5578 5579 5581 5584 5586 5589 5591 5593 5596 5598 5600 5601 5603 5606 5609 5611 5614 5616 5618 5620 5623 5625 5628
5552 5551 5550 5550 5550 5550 5550 5551 5551 5552 5552 5553 5553 5554 5554 5555 5556 5557 5559 5560 5562 5564 5565 5568 5570 5572 5575 5577 5579 5581 5583 5585 5586 5589 5592 5594 5597 5599 5602 5604 5606 5609 5611
5538 5537 5537 5536 5536 5536 5536 5536 5536 5536 5537 5537 5537 5538 5539 5539 5540 5542 5543 5545 5546 5548 5549 5551 5553 5555 5557 5559 5562 5564 5565 5567 5569 5571 5574 5577 5580 5582 5585 5588 5590 5592 5594
5525 5524 5523 5522 5522 5522 5521 5522 5521 5521 5521 5522 5521 5522 5523 5523 5524 5525 5527 5529 5530 5532 5533 5535 5536 5538 5540 5542 5544 5546 5548 5549 5552 5554 5557 5559 5562 5565 5568 5571 5573 5575 5577
5512 5511 5509 5509 5508 5508 5508 5507 5507 5506 5506 5506 5506 5507 5507 5508 5508 5509 5510 5512 5514 5515 5517 5518 5519 5521 5522 5524 5526 5528 5530 5532 5534 5537 5540 5542 5545 5548 5551 5553 5555 5558 5561
5498 5497 5496 5494 5494 5494 5494 5493 5493 5492 5491 5491 5491 5491 5492 5492 5492 5493 5493 5495 5497 5498 5500 5501 5502 5504 5505 5506 5508 5510 5512 5514 5517 5520 5522 5525 5528 5532 5534 5537 5538 5541 5544
5484 5483 5482 5481 5481 5480 5480 5479 5478 5477 5477 5477 5476 5476 5476 5476 5476 5476 5476 5477 5479 5481 5482 5483 5484 5486 5487 5489 5491 5492 5494 5497 5499 5502 5505 5507 5510 5512 5515 5519 5521 5523 5526
5471 5470 5469 5468 5467 5467 5466 5465 5464 5463 5463 5462 5461 5461 5461 5460 5460 5460 5459 5460 5462 5463 5464 5465 5467 5469 5471 5472 5473 5476 5478 5479 5480 5483 5486 5488 5491 5494 5496 5499 5502 5505 5508
5458 5457 5456 5455 5454 5453 5453 5452 5450 5450 5449 5447 5446 5446 5445 5445 5444 5443 5443 5444 5445 5447 5448 5449 5450 5452 5453 5454 5455 5458 5460 5462 5463 5465 5467 5470 5472 5475 5478 5481 5484 5487 5490
5446 5444 5443 5441 5440 5440 5439 5438 5437 5436 5435 5434 5432 5431 5430 5429 5428 5428 5427 5427 5428 5429 5431 5432 5433 5435 5436 5437 5439 5441 5443 5445 5446 5448 5450 5452 5455 5458 5461 5463 5466 5469 5472
5433 5432 5430 5428 5427 5426 5425 5424 5423 5421 5420 5419 5417 5416 5414 5413 5413 5412 5412 5412 5412 5413 5414 5416 5418 5418 5420 5421 5423 5424 5426 5427 5429 5431 5433 5436 5438 5441 5443 5446 5449 5451 5454
5421 5419 5417 5415 5413 5412 5411 5410 5409 5407 5406 5404 5402 5401 5400 5398 5397 5396 5396 5397 5397 5397 5399 5401 5402 5403 5404 5406 5407 5408 5409 5411 5413 5415 5417 5419 5421 5423 5426 5428 5431 5434 5436
5408 5406 5404 5402 5400 5398 5397 5396 5395 5393 5392 5390 5388 5386 5385 5384 5383 5382 5382 5382 5382 5383 5384 5386 5387 5387 5388 5390 5392 5393 5394 5395 5397 5399 5401 5402 5404 5406 5408 5411 5414 5416 5419
5395 5393 5391 5389 5387 5385 5383 5382 5380 5379 5377 5375 5374 5372 5371 5370 5369 5368 5368 5368 5369 5369 5370 5371 5372 5373 5374 5375 5377 5378 5379 5380 5382 5384 5385 5386 5388 5389 5391 5394 5396 5399 5402
5383 5380 5378 5376 5374 5372 5370 5368 5365 5364 5362 5361 5359 5358 5357 5356 5355 5354 5354 5354 5355 5355 5356 5356 5358 5359 5360 5361 5362 5364 5365 5366 5367 5368 5369 5371 5372 5374 5375 5377 5379 5382 5385
5370 5368 5365 5363 5361 5358 5356 5354 5352 5350 5348 5347 5345 5344 5343 5342 5341 5340 5340 5340 5341 5341 5342 5343 5344 5345 5346 5347 5348 5349 5350 5351 5352 5353 5354 5355 5357 5358 5360 5361 5364 5366 5369
5357 5355 5352 5350 5348 5345 5343 5341 5339 5337 5336 5333 5332 5330 5329 5328 5327 5327 5326 5326 5327 5327 5328 5329 5330 5331 5332 5333 5334 5335 5336 5336 5337 5338 5339 5340 5341 5342 5344 5346 5348 5350 5353
5344 5342 5339 5337 5334 5331 5329 5327 5325 5323 5321 5320 5319 5317 5316 5315 5314 5313 5313 5313 5313 5314 5314 5315 5316 5316 5317 5318 5319 5320 5321 5322 5323 5323 5324 5325 5326 5328 5329 5331 5333 5335 5337
5331 5328 5326 5323 5320 5318 5315 5313 5311 5309 5307 5306 5305 5304 5303 5302 5301 5300 5299 5299 5299 5299 5300 5300 5301 5302 5303 5304 5305 5306 5306 5307 5308 5309 5310 5311 5312 5313 5315 5316 5318 5321 5323
5318 5315 5312 5309 5307 5304 5302 5299 5297 5295 5293 5292 5291 5289 5288 5287 5287 5286 5286 5285 5285 5285 5285 5286 5287 5287 5288 5289 5290 5291 5292 5293 5294 5295 5296 5297 5298 5299 5301 5302 5304 5307 5310
5305 5302 5298 5296 5293 5291 5288 5286 5284 5282 5280 5278 5276 5275 5273 5273 5272 5272 5271 5271 5270 5271 5271 5271 5272 5273 5274 5275 5276 5277 5278 5279 5280 5281 5282 5284 5285 5286 5287 5289 5291 5294 5297
5291 5288 5285 5282 5279 5277 5274 5272 5270 5268 5266 5264 5262 5261 5259 5258 5258 5257 5257 5257 5256 5257 5257 5257 5258 5259 5260 5261 5262 5263 5264 5265 5266 5268 5269 5270 5272 5273 5275 5277 5279 5281 5284
5277 5274 5271 5268 5266 5263 5261 5258 5256 5254 5252 5250 5249 5247 5246 5245 5244 5243 5243 5243 5243 5243 5243 5243 5244 5245 5245 5246 5248 5249 5250 5251 5252 5254 5255 5257 5259 5260 5262 5264 5266 5269 5272
5263 5260 5257 5255 5252 5250 5247 5245 5243 5241 5239 5238 5236 5234 5233 5232 5231 5231 5230 5230 5230 5229 5229 5229 5230 5231 5232 5233 5234 5235 5236 5237 5239 5240 5242 5244 5246 5248 5250 5252 5254 5257 5259
5250 5247 5245 5242 5239 5237 5235 5233 5231 5229 5227 5225 5224 5222 5221 5220 5219 5218 5218 5217 5217 5217 5216 5216 5217 5217 5218 5219 5221 5222 5223 5224 5226 5228 5229 5232 5234 5236 5238 5240 5242 5245 5247